[[{"header":{"parameterUnit":"m.s-1","parameterCategory":1,"la1":30.2991,"la2":30.254,"lo1":-89.0895,"lo2":-89.0444,"dy":0.0017,"dx":0.0017,"nx":28,"ny":28,"refTime":"2025-07-29T09:00:00:Z","depth":0,"parameterNumber":2,"parameterNumberName":"U-component_of_WINDS"},"data":[0,0,0,0,0,0,0,0,0,0,0,0,0,0,0,0,0,0,0,0,0,0,0,0,0,0,0,0,0,0,0,0,0,0,0,0,0,0,0,0,0,0,0,0,0,0,0,0,0,0,0,0,0,0,0,0,0,0,2.8908,2.8908,0,2.8972,2.8972,2.8973,2.8927,2.8925,2.8923,2.8921,2.8986,2.8989,2.8993,0,0,0,0,0,0,0,0,0,0,0,0,0,2.8745,2.8748,2.8908,2.8908,2.8909,2.8972,2.8972,2.8973,2.8927,2.8925,2.8922,2.892,2.8985,2.8989,2.8993,0,0,0,0,0,0,0,0,0,0,0,0,0,2.8813,2.8749,2.8907,2.8894,2.8893,2.8971,2.8972,2.8974,2.8928,2.8925,2.8922,2.8919,2.8983,2.8989,2.8994,2.9089,0,0,2.9011,2.9013,0,0,0,0,0,0,0,0,2.8809,2.8819,2.8895,2.8895,2.8894,2.8938,2.8939,2.9012,2.8928,2.8915,2.8921,2.8917,2.8972,2.8979,2.8997,2.9092,2.9095,2.9011,2.9014,2.9017,2.9018,0,0,0,0,0,0,0,2.8804,2.8816,2.8933,2.8896,2.8896,2.8884,2.889,2.8952,2.896,2.8916,2.8912,2.8921,2.8972,2.8992,2.8999,2.9096,2.9011,2.9016,2.9019,2.9021,2.927,2.9274,0,0,0,0,0,0,2.8801,2.8812,2.8931,2.8935,2.8843,2.8889,2.8896,2.8927,2.8959,2.8961,2.8923,2.8918,2.8984,2.8992,2.9001,2.9113,2.9017,2.9022,2.9025,2.9267,2.9271,2.9275,0,0,0,0,0,0,2.8798,2.8812,2.8928,2.8873,2.8887,2.8896,2.893,2.893,2.895,2.8965,2.8966,2.8943,2.8982,2.8993,2.9067,2.9114,2.9024,2.9029,2.9263,2.9268,2.9273,2.9338,0,0,0,0,0,0,2.8793,2.8811,2.8847,2.8874,2.889,2.8994,2.8933,2.8933,2.896,2.8954,2.8984,2.8985,2.8981,2.9059,2.9073,2.912,2.9034,2.9259,2.9265,2.9271,2.9332,2.9345,2.9356,0,0,0,0,0,2.8787,2.8864,2.885,2.8864,2.8936,2.8997,2.9006,2.8999,2.8964,2.9,2.901,2.8984,2.9107,2.9067,2.9082,2.9132,2.9256,2.9264,2.9271,2.9327,2.9342,2.9356,0,0,0,0,0,0,2.8842,2.8867,2.8851,2.8939,2.8966,2.8989,2.9035,2.9016,2.9054,2.9047,2.9037,2.9044,2.9121,2.9134,2.9089,2.9225,2.9176,2.9187,2.9213,2.9229,2.924,2.9235,2.9038,0,0,0,0,0,2.8865,2.8913,2.8932,2.9007,2.9021,2.9026,2.9052,2.9045,2.9073,2.9084,2.9098,2.9127,2.9171,2.9201,2.9243,2.9334,2.9339,2.9376,2.9388,2.9398,2.9407,2.9454,2.947,2.9299,2.9299,2.9299,0,0,2.8911,2.893,2.8961,2.9018,2.9038,2.9088,2.9036,2.9091,2.9127,2.9092,2.9162,2.9175,2.9205,2.9288,2.9325,2.9301,2.9455,2.9407,2.9415,2.9419,2.9464,2.948,2.9494,2.9305,2.9304,2.9303,0,0,2.9021,2.9041,2.9105,2.9126,2.9158,2.916,2.9176,2.9202,2.9208,2.9279,2.9253,2.9296,2.9374,2.9396,2.9418,2.9536,2.9514,2.955,2.9612,2.9659,2.9672,2.9684,2.9724,2.9739,2.9559,2.9559,2.956,0,2.9074,2.9148,2.914,2.9196,2.9221,2.9192,2.9256,2.9278,2.9322,2.9339,2.9312,2.9408,2.9427,2.9513,2.9542,2.9561,2.9578,2.9546,2.9671,2.9683,2.9694,2.9732,2.9748,2.9563,2.9563,2.9563,2.9562,0,2.9211,2.9263,2.9311,2.9353,2.9384,2.9444,2.9445,2.9477,2.9467,2.9472,2.9544,2.9565,2.961,2.9631,2.9622,2.9716,2.97,2.9673,2.9623,2.9714,2.975,2.9765,2.9569,2.9568,2.9567,2.9566,0,0,2.9356,2.9394,2.9411,2.9429,2.9462,2.9502,2.956,2.9604,2.9631,2.9663,2.9711,2.9777,2.9751,2.9776,2.9769,2.981,2.99,2.9777,2.9778,2.9798,3.0004,3.0023,3.004,2.9886,2.9889,2.9892,3.0001,0,2.9466,2.9568,2.9562,2.9657,2.9704,2.9677,2.9728,2.9753,2.976,2.98,2.9808,2.9854,2.9818,2.9832,2.9872,2.9881,2.9941,2.9873,2.993,2.9932,2.9921,3.0059,3.008,3.0182,3.0015,3.0017,3.0019,0,2.9607,2.9643,2.9743,2.9767,2.9787,2.9833,2.9872,2.9911,2.9939,2.9941,2.9969,2.9955,3.0013,2.9964,3.0044,2.9997,3.0021,3.0029,3.0032,3.0036,2.998,3.0065,3.0215,3.0229,3.0041,3.0039,3.0038,0,2.9701,2.9774,2.9843,2.986,2.9891,2.9923,2.9937,2.9962,2.9989,3.0024,3.0041,3.0082,3.0105,3.0137,3.0134,3.0099,3.0215,3.0165,3.0217,3.0217,3.0241,3.0239,3.0395,3.0259,3.0259,3.0259,3.0259,0,2.9823,2.9884,2.9885,2.9927,2.9995,2.9988,3.0055,3.0066,3.0089,3.0132,3.0112,3.0153,3.0148,3.019,3.0188,3.0254,3.0265,3.0267,3.0265,3.0268,3.0267,3.0281,3.0273,3.0263,3.0262,3.0261,3.0261,0,2.9938,2.9941,3.0014,3.0037,3.0044,3.0093,3.0113,3.0153,3.0158,3.0213,3.0225,3.0233,3.0281,3.0282,3.0337,3.0336,3.0415,3.0406,3.0405,3.0403,3.0454,3.0448,3.0622,3.0644,3.0496,3.0498,3.0499,0,3.0014,3.0061,3.0089,3.0117,3.0133,3.0178,3.0205,3.02,3.0229,3.0264,3.0299,3.0345,3.038,3.0458,3.0468,3.0509,3.0501,3.0559,3.0507,3.0507,3.0499,3.0496,3.05,3.0568,3.057,3.0571,3.0572,0,3.015,3.0149,3.0188,3.0228,3.0261,3.0292,3.0321,3.0345,3.0343,3.0377,3.0425,3.0453,3.0508,3.0553,3.0594,3.0608,3.059,3.0589,3.0603,3.0605,3.0601,3.0602,3.0431,3.0585,3.0583,3.0583,3.0582,3.0581,3.0247,3.0286,3.0312,3.0356,3.0378,3.0405,3.0443,3.0453,3.0493,3.0537,3.0532,3.0585,3.0612,3.0663,3.0681,3.0723,3.0702,3.0723,3.0728,3.0732,3.0737,3.0596,3.073,3.073,3.073,3.0729,3.0729,0,3.0379,3.0394,3.0435,3.0476,3.0511,3.0492,3.0523,3.0553,3.06,3.0626,3.0661,3.0716,3.076,3.0774,3.0816,3.0846,3.0839,3.0857,3.0854,3.0857,3.0754,3.0736,3.0862,3.0862,3.0862,3.0862,3.0862,3.0862,3.0452,3.0517,3.0519,3.0595,3.061,3.0662,3.0681,3.0706,3.0726,3.0788,3.0824,3.0833,3.0854,3.0897,3.0936,3.0939,3.0955,3.0976,3.0976,3.0878,3.0865,3.0852,3.0836,3.098,3.098,3.1076,3.1076,3.1077]},{"header":{"parameterUnit":"m.s-1","parameterCategory":1,"la1":30.2991,"la2":30.254,"lo1":-89.0895,"lo2":-89.0444,"dy":0.0017,"dx":0.0017,"nx":28,"ny":28,"refTime":"2025-07-29T09:00:00:Z","depth":0,"parameterNumber":3,"parameterNumberName":"V-component_of_WINDS"},"data":[0,0,0,0,0,0,0,0,0,0,0,0,0,0,0,0,0,0,0,0,0,0,0,0,0,0,0,0,0,0,0,0,0,0,0,0,0,0,0,0,0,0,0,0,0,0,0,0,0,0,0,0,0,0,0,0,0,0,4.1621,4.1624,0,4.1919,4.1922,4.1926,4.1975,4.1972,4.1969,4.1967,4.2275,4.2286,4.2296,0,0,0,0,0,0,0,0,0,0,0,0,0,4.1096,4.1105,4.162,4.1624,4.1628,4.1918,4.1922,4.1927,4.1975,4.1972,4.1969,4.1966,4.2272,4.2284,4.2297,0,0,0,0,0,0,0,0,0,0,0,0,0,4.1352,4.1108,4.162,4.1687,4.1696,4.1918,4.1923,4.1928,4.1976,4.1972,4.1968,4.1964,4.2268,4.2283,4.2299,4.2475,0,0,4.2348,4.2354,0,0,0,0,0,0,0,0,4.1337,4.1371,4.1673,4.1683,4.1693,4.1905,4.1851,4.2111,4.1977,4.187,4.1967,4.1962,4.2156,4.218,4.2245,4.249,4.2503,4.2349,4.2359,4.2365,4.237,0,0,0,0,0,0,0,4.1319,4.1358,4.1739,4.1678,4.169,4.1703,4.1735,4.19,4.2031,4.1879,4.1883,4.1917,4.216,4.223,4.2253,4.2507,4.2349,4.2363,4.2373,4.2379,4.2912,4.2917,0,0,0,0,0,0,4.1289,4.1343,4.1729,4.1748,4.1502,4.1716,4.1752,4.1841,4.2029,4.2054,4.192,4.1919,4.2204,4.2234,4.2264,4.2483,4.2365,4.238,4.2389,4.2908,4.2913,4.2918,0,0,0,0,0,0,4.1278,4.1323,4.1717,4.1547,4.1598,4.1729,4.1829,4.1849,4.1919,4.2061,4.2084,4.1967,4.2202,4.2241,4.2422,4.2495,4.2387,4.2402,4.2902,4.2909,4.2916,4.2923,0,0,0,0,0,0,4.1262,4.1319,4.1386,4.1548,4.1607,4.187,4.1834,4.1858,4.1946,4.1946,4.2111,4.2134,4.2202,4.2398,4.2438,4.2515,4.2414,4.2896,4.2905,4.2914,4.2917,4.2929,4.294,0,0,0,0,0,4.1243,4.1377,4.139,4.1436,4.1694,4.1874,4.1908,4.1982,4.1951,4.2021,4.2112,4.2129,4.248,4.2416,4.2462,4.2544,4.2892,4.2903,4.2913,4.2912,4.2927,4.294,0,0,0,0,0,0,4.1222,4.1399,4.1415,4.1605,4.1724,4.1882,4.1972,4.1996,4.2127,4.2122,4.221,4.2247,4.2423,4.2502,4.2428,4.2725,4.2684,4.2704,4.2667,4.2683,4.2694,4.2672,4.2428,0,0,0,0,0,4.1239,4.1369,4.1518,4.1671,4.1729,4.184,4.1921,4.1968,4.2096,4.2146,4.2251,4.2374,4.2513,4.2602,4.2737,4.2928,4.2965,4.3007,4.3019,4.3027,4.3044,4.3152,4.3173,4.2952,4.2952,4.2952,0,0,4.1276,4.1389,4.1466,4.1669,4.1767,4.1901,4.1882,4.2025,4.2126,4.2169,4.2346,4.2427,4.257,4.2757,4.2845,4.2828,4.3113,4.3041,4.3046,4.3059,4.3165,4.3185,4.3204,4.2959,4.2958,4.2957,0,0,4.1412,4.151,4.1649,4.1747,4.1895,4.1967,4.2,4.2155,4.221,4.2389,4.2424,4.2546,4.2781,4.2883,4.2965,4.3139,4.316,4.318,4.3241,4.3345,4.3362,4.3378,4.3441,4.3463,4.3196,4.3196,4.3196,0,4.144,4.1643,4.1717,4.1859,4.1948,4.1991,4.2133,4.2225,4.2409,4.247,4.2448,4.2745,4.2845,4.3056,4.3098,4.3163,4.3205,4.3163,4.3353,4.337,4.3386,4.3447,4.3471,4.3198,4.3197,4.3197,4.3197,0,4.167,4.181,4.1904,4.208,4.2179,4.232,4.2417,4.2509,4.2547,4.2622,4.2804,4.2925,4.3085,4.3139,4.3178,4.3357,4.3342,4.3335,4.3296,4.3407,4.3467,4.3491,4.32,4.3199,4.3199,4.3198,0,0,4.1803,4.2017,4.2051,4.2132,4.2297,4.2408,4.255,4.2706,4.2783,4.2909,4.3032,4.323,4.3225,4.3319,4.3369,4.346,4.3592,4.3444,4.3449,4.3468,4.3797,4.3801,4.3827,4.3606,4.361,4.3614,4.3785,0,4.1959,4.2215,4.2286,4.2502,4.2633,4.2676,4.28,4.2916,4.299,4.3112,4.3194,4.3334,4.3316,4.3373,4.3465,4.3556,4.3659,4.3544,4.3722,4.3728,4.3686,4.3858,4.3864,4.4019,4.3809,4.3813,4.3816,0,4.2177,4.2306,4.2534,4.2683,4.2741,4.2851,4.3,4.3116,4.3248,4.3296,4.3399,4.3442,4.3593,4.3544,4.3755,4.3675,4.3752,4.3808,4.3816,4.3836,4.3779,4.3885,4.4071,4.4094,4.3853,4.385,4.3847,0,4.2252,4.2482,4.2649,4.2717,4.2895,4.2971,4.3049,4.3178,4.3267,4.3397,4.3456,4.3602,4.3682,4.3795,4.3876,4.3833,4.408,4.4038,4.4125,4.4123,4.4177,4.4173,4.4379,4.4223,4.4223,4.4223,4.4222,0,4.242,4.2559,4.2685,4.2788,4.2945,4.3026,4.3179,4.3259,4.3372,4.3492,4.3538,4.365,4.3749,4.3874,4.3939,4.4104,4.414,4.4183,4.4199,4.418,4.4175,4.4233,4.4225,4.4229,4.4228,4.4226,4.4225,0,4.2532,4.2621,4.2806,4.2959,4.3001,4.311,4.3241,4.3343,4.3417,4.3569,4.3609,4.3727,4.3877,4.3968,4.4158,4.4201,4.4384,4.4395,4.4339,4.4347,4.4429,4.4421,4.4681,4.472,4.4537,4.4539,4.454,0,4.2634,4.2741,4.2905,4.2988,4.3067,4.32,4.3291,4.3374,4.3467,4.3626,4.3709,4.3861,4.3988,4.4225,4.4328,4.4474,4.449,4.4571,4.4512,4.449,4.4493,4.4486,4.4498,4.4581,4.4583,4.4584,4.4585,0,4.2806,4.2845,4.2974,4.3119,4.3226,4.3344,4.3462,4.3528,4.3631,4.3734,4.3887,4.3985,4.4178,4.4329,4.4484,4.4565,4.4594,4.4603,4.4631,4.4614,4.4577,4.4599,4.4367,4.4597,4.4596,4.4595,4.4594,4.4594,4.2918,4.3015,4.3146,4.3288,4.3385,4.3494,4.3597,4.3685,4.3813,4.3977,4.4018,4.4179,4.4309,4.4519,4.4604,4.4732,4.472,4.476,4.4771,4.478,4.4782,4.4555,4.476,4.476,4.4759,4.4759,4.4759,0,4.3094,4.3179,4.3309,4.3472,4.3584,4.3599,4.373,4.3823,4.3964,4.4082,4.4205,4.4381,4.4528,4.4642,4.4793,4.4873,4.489,4.491,4.4906,4.4925,4.4784,4.4745,4.4894,4.4894,4.4894,4.4894,4.4894,4.4894,4.3198,4.3365,4.3419,4.3634,4.372,4.3877,4.395,4.4052,4.4146,4.4341,4.4462,4.4535,4.4653,4.4812,4.4948,4.4978,4.5032,4.505,4.5082,4.4949,4.4934,4.492,4.4884,4.5061,4.5061,4.5213,4.5215,4.5216]}]]